sat.trackr.live / text

‹ back to catalog

STARLINK-5622

NORAD 55358 · 2023-013AD

PAYLOAD ACTIVE UNKNOWN

§ Identity

Operator
Country
US
Launch date
2023-01-26
Launch site
AFETR
Launch vehicle
Mass (kg)
RCS (m²)

Purposes: comms

External: N2YO · Heavens-Above · Gunter

§ Orbital elements

Epoch: 2026-05-24T12:39:53.851104Z

Period
94.27 min
Inclination
43.0029°
Eccentricity
0.0001447
Mean motion
15.27574850 rev/d
Perigee alt
482.1 km
Apogee alt
484.1 km
Semi-major
6,861.2 km
B*
1.2075e-5
RAAN
234.9573°
Arg perigee
268.5270°
Mean anomaly
91.5416°
Rev number
18,327

§ Raw data

STARLINK-56221 55358U 23013AD  26144.52770661  .00000070  00000+0  12075-4 0  99912 55358  43.0029 234.9573 0001447 268.5270  91.5416 15.27574850183276

JSON: /api/v1/satellites/55358 · /tle

For live sub-satellite position, see the globe view (requires WebGL).

§ Visibility from observer

Set your observer location to see the next 7 days of passes ≥ 10°. The values pass through the URL so the page stays shareable.

No JS? Fill the form by hand. The geolocation button needs JavaScript.